Regional Weather Roundup
Issued by NWS

Home | Current Version | Previous Version | Text Only | Print | Product List | Glossary Off
Versions: 1 2 3 4 5 6 7 8 9 10 11 12 13 14 15 16 17 18 19 20 21 22 23 24 25 26 27 28 29 30 31 32 33 34 35 36 37 38 39 40 41 42 43 44 45 46 47 48 49 50

000
ASUS43 KLMK 180810
RWRKY
KENTUCKY REGIONAL WEATHER ROUNDUP
NATIONAL WEATHER SERVICE LOUISVILLE KY
400 AM EDT THU SEP 18 2014

NOTE "FAIR" INDICATES FEW OR NO CLOUDS BELOW 12,000 FEET
WITH NO SIGNIFICANT WEATHER AND/OR OBSTRUCTIONS TO VISIBILITY.

KYZ001>023-026-027-061>063-070>075-180900-
WESTERN AND SOUTH CENTRAL KENTUCKY

CITY           SKY/WX    TMP DP  RH WIND       PRES   REMARKS
PADUCAH        CLOUDY    63  58  83 CALM      29.95F
HENDERSON      CLOUDY    63  54  72 E9        29.99S
OWENSBORO      CLOUDY    63  56  78 E6        30.00S
HOPKINSVILLE   CLOUDY    60  60 100 CALM      29.98S
BOWLING GREEN  MOCLDY    58  55  90 CALM      29.99S
GLASGOW        MOCLDY    56  56  98 CALM      29.99F
$$

KYZ024-025-028>034-038-045-046-053-180900-
NORTH CENTRAL KENTUCKY

CITY           SKY/WX    TMP DP  RH WIND       PRES   REMARKS
LOUISVILLE/SDF MOCLDY    58  53  84 CALM      30.01S
LOUISVILLE/LOU MOCLDY    57  53  86 CALM      30.01F
FORT KNOX      CLOUDY    58  53  85 NE5       30.00S
$$

KYZ035>037-039>044-047>052-055>060-089>105-180900-
NORTHEAST KENTUCKY

CITY           SKY/WX    TMP DP  RH WIND       PRES   REMARKS
LEXINGTON      CLOUDY    59  52  77 NE6       30.01F
COVINGTON      CLEAR     52  49  89 N6        30.02F
FRANKFORT      MOCLDY    55  52  89 CALM      30.01F
$$

KYZ054-064>069-076>088-106>120-180900-
SOUTHEAST KENTUCKY

CITY           SKY/WX    TMP DP  RH WIND       PRES   REMARKS
JACKSON        MOCLDY    58  53  84 CALM      30.01S
LONDON         CLOUDY    57  54  89 CALM      30.01F
SOMERSET       NOT AVBL
MIDDLESBORO    CLOUDY    55  54  98 CALM      30.02R
MONTICELLO     PTSUNNY   59  58  96 CALM      30.02S
$$



USA.gov is the U.S. government's official web portal to all federal, state and local government web resources and services.